�N����,����,�~����,�C��,���x,�C��,����,���ϕ���,�ő�u�ԕ���,�ő厞����,���˗�,�I�_���x,�n�����x,�ő啗���N��,DTYPE
"18/06/15","00:10",0.0,18.2,83.6,1003.6,329.6,2.7,4.0,321.3,0.00,15.4,20.5,"00:05:20",1
"18/06/15","00:20",0.0,18.1,83.8,1003.4,327.4,1.8,3.5,334.3,0.00,15.4,20.6,"00:10:24",1
"18/06/15","00:30",0.0,18.0,84.0,1003.4,324.9,2.5,3.9,323.4,0.00,15.3,20.3,"00:26:08",1
"18/06/15","00:40",0.0,18.0,84.3,1003.1,329.7,2.3,3.9,336.0,0.00,15.4,20.3,"00:34:56",1
"18/06/15","00:50",0.0,17.9,84.6,1002.6,330.2,2.1,3.6,330.8,0.00,15.3,20.5,"00:42:00",1
"18/06/15","01:00",0.0,17.9,84.9,1002.9,324.7,2.1,3.2,337.1,0.00,15.4,20.3,"00:55:36",1
"18/06/15","01:10",0.0,17.9,85.0,1002.9,329.2,2.1,4.1,336.8,0.00,15.4,20.5,"01:02:08",1
"18/06/15","01:20",0.0,17.8,85.3,1002.9,326.1,2.3,4.1,324.5,0.00,15.3,20.4,"01:19:52",1
"18/06/15","01:30",0.0,17.8,85.5,1002.6,327.5,2.2,4.9,321.6,0.00,15.4,20.2,"01:20:32",1
"18/06/15","01:40",0.0,17.8,85.5,1002.9,325.9,2.2,3.6,314.4,0.00,15.4,20.2,"01:30:08",1
"18/06/15","01:50",0.0,17.8,85.5,1002.9,325.1,2.1,3.6,319.8,0.00,15.4,20.4,"01:42:00",1
"18/06/15","02:00",0.0,17.8,85.2,1002.9,327.7,2.5,3.5,339.1,0.00,15.3,20.1,"01:58:40",1
"18/06/15","02:10",0.0,17.7,85.4,1002.4,325.4,2.1,4.3,332.2,0.00,15.3,20.1,"02:06:40",1
"18/06/15","02:20",0.0,17.7,85.6,1002.2,328.7,2.1,4.0,326.3,0.00,15.3,20.0,"02:11:44",1
"18/06/15","02:30",0.0,17.6,85.7,1002.2,329.7,2.3,4.3,326.0,0.00,15.2,20.1,"02:28:16",1
"18/06/15","02:40",0.0,17.7,85.8,1002.4,326.0,2.2,3.7,312.5,0.00,15.3,20.1,"02:37:44",1
"18/06/15","02:50",0.0,17.7,85.9,1002.6,323.8,2.0,3.4,325.7,0.00,15.4,20.1,"02:49:12",1
"18/06/15","03:00",0.0,17.7,86.2,1002.2,324.3,2.1,4.0,333.3,0.00,15.4,19.8,"02:57:04",1
"18/06/15","03:10",0.0,17.7,86.4,1002.2,326.2,2.5,4.0,323.5,0.00,15.4,19.9,"03:04:56",1
"18/06/15","03:20",0.0,17.7,86.7,1002.2,329.3,2.1,3.6,333.8,0.00,15.5,19.9,"03:16:56",1
"18/06/15","03:30",0.0,17.7,86.7,1002.2,326.5,2.3,4.3,318.4,0.00,15.5,19.9,"03:28:00",1
"18/06/15","03:40",0.0,17.7,86.7,1002.2,329.7,1.8,3.7,328.6,0.00,15.5,19.8,"03:30:40",1
"18/06/15","03:50",0.0,17.8,86.7,1001.7,325.5,2.5,3.9,329.3,0.00,15.6,19.9,"03:42:00",1
"18/06/15","04:00",0.0,17.7,86.6,1001.9,328.2,2.6,4.7,335.1,0.00,15.5,20.0,"03:57:36",1
"18/06/15","04:10",0.0,17.7,86.7,1001.7,327.5,2.2,4.0,339.4,0.00,15.5,19.9,"04:02:00",1
"18/06/15","04:20",0.0,17.8,86.6,1001.9,325.3,2.3,4.0,337.4,0.00,15.6,19.9,"04:16:24",1
"18/06/15","04:30",0.0,17.9,86.3,1002.2,324.4,2.3,4.2,329.1,0.00,15.6,19.7,"04:24:08",1
"18/06/15","04:40",0.0,17.9,86.2,1001.7,325.5,2.3,4.4,329.1,0.00,15.6,19.8,"04:39:28",1
"18/06/15","04:50",0.0,17.8,86.6,1001.7,323.3,2.6,4.1,336.9,0.00,15.6,20.0,"04:48:24",1
"18/06/15","05:00",0.0,17.5,87.2,1001.9,328.0,2.6,5.6,330.7,0.00,15.4,19.9,"04:58:00",1
"18/06/15","05:10",0.0,17.3,88.3,1001.9,334.9,1.8,4.9,352.3,0.00,15.4,19.8,"05:04:48",1
"18/06/15","05:20",0.0,17.1,89.3,1001.9,333.5,2.1,3.6,343.6,0.00,15.4,19.8,"05:18:24",1
"18/06/15","05:30",0.0,17.1,90.1,1001.7,335.5,2.5,4.1,332.3,0.00,15.5,19.6,"05:28:16",1
"18/06/15","05:40",0.0,17.0,90.8,1002.4,329.8,2.8,5.6,326.0,0.00,15.5,19.7,"05:32:00",1
"18/06/15","05:50",0.0,16.9,91.4,1002.2,333.9,3.1,6.0,336.0,0.00,15.5,19.8,"05:49:04",1
"18/06/15","06:00",0.0,16.8,91.7,1001.7,327.2,3.1,5.7,330.7,0.00,15.5,19.6,"05:55:28",1
"18/06/15","06:10",0.0,16.8,92.3,1001.9,331.1,2.7,4.9,330.4,0.00,15.6,19.7,"06:02:08",1
"18/06/15","06:20",0.0,16.8,92.7,1001.9,337.7,2.5,4.4,335.1,0.00,15.7,19.6,"06:10:32",1
"18/06/15","06:30",0.0,16.8,92.9,1002.2,332.6,2.6,5.0,315.3,0.00,15.7,19.7,"06:29:12",1
"18/06/15","06:40",0.0,16.7,93.2,1001.7,325.5,3.4,6.7,329.2,0.00,15.6,19.7,"06:34:34",1
"18/06/15","06:50",0.0,16.7,93.6,1001.7,323.7,2.1,3.6,351.2,0.00,15.7,19.4,"06:40:24",1
"18/06/15","07:00",0.0,16.9,94.0,1002.2,325.5,2.3,3.9,325.5,0.00,16.0,19.5,"06:54:40",1
"18/06/15","07:10",0.0,16.9,94.0,1002.4,328.5,2.0,3.5,345.9,0.00,16.0,19.2,"07:04:08",1
"18/06/15","07:20",0.0,17.0,94.2,1002.6,323.7,2.0,3.1,331.5,0.00,16.1,19.4,"07:17:12",1
"18/06/15","07:30",0.0,17.0,94.3,1002.9,301.8,1.1,3.6,336.0,0.00,16.1,19.4,"07:29:52",1
"18/06/15","07:40",0.0,17.0,94.6,1002.9,327.0,2.1,3.5,307.3,0.00,16.2,19.4,"07:36:32",1
"18/06/15","07:50",0.0,17.1,94.7,1002.9,329.6,1.8,2.9,333.5,0.00,16.3,19.3,"07:46:16",1
"18/06/15","08:00",0.0,17.1,94.7,1002.9,334.0,1.7,4.0,331.4,0.01,16.3,19.1,"07:59:28",1
"18/06/15","08:10",0.0,17.0,94.8,1002.4,335.4,1.8,4.3,332.8,0.02,16.2,19.4,"08:09:20",1
"18/06/15","08:20",0.0,17.2,95.0,1002.6,329.6,2.3,4.4,333.3,0.04,16.4,19.5,"08:15:52",1
"18/06/15","08:30",0.0,17.4,95.3,1002.4,333.9,2.7,4.9,336.2,0.06,16.7,19.2,"08:20:16",1
"18/06/15","08:40",0.0,17.5,94.9,1002.4,335.8,2.5,4.7,339.4,0.06,16.7,19.3,"08:31:52",1
"18/06/15","08:50",0.0,17.6,94.8,1001.9,335.3,2.5,4.1,338.0,0.08,16.8,19.4,"08:42:16",1
"18/06/15","09:00",0.0,17.8,94.5,1002.4,326.1,2.7,4.4,322.5,0.09,16.9,19.4,"08:52:16",1
"18/06/15","09:10",0.0,17.7,94.9,1002.9,326.9,3.0,5.0,331.0,0.06,16.9,19.5,"09:07:20",1
"18/06/15","09:20",0.0,17.4,94.5,1002.9,332.1,3.1,5.1,329.7,0.05,16.5,19.4,"09:19:28",1
"18/06/15","09:30",0.0,17.6,94.7,1002.9,329.7,2.7,4.9,339.1,0.04,16.8,19.3,"09:27:20",1
"18/06/15","09:40",0.0,17.5,94.7,1003.1,328.2,3.5,6.7,333.1,0.06,16.7,19.4,"09:35:28",1
"18/06/15","09:50",0.0,18.0,94.2,1002.6,327.5,3.0,4.8,312.2,0.10,17.1,19.5,"09:43:28",1
"18/06/15","10:00",0.0,18.2,94.5,1002.2,322.5,2.6,4.7,335.1,0.11,17.3,19.6,"09:56:24",1
"18/06/15","10:10",0.0,18.6,93.9,1002.6,304.3,1.7,4.1,339.3,0.14,17.6,19.4,"10:01:12",1
"18/06/15","10:20",0.0,19.0,93.8,1002.9,309.9,1.8,3.4,336.2,0.15,18.0,19.6,"10:12:24",1
"18/06/15","10:30",0.0,19.1,93.5,1002.4,299.3,1.5,3.1,308.5,0.10,18.1,19.6,"10:26:56",1
"18/06/15","10:40",0.0,19.7,92.0,1002.2,302.5,1.6,3.7,318.5,0.09,18.4,19.7,"10:34:24",1
"18/06/15","10:50",0.0,19.6,92.7,1002.2,303.0,1.7,2.8,298.0,0.10,18.4,19.6,"10:45:52",1
"18/06/15","11:00",0.0,19.6,92.3,1002.2,297.6,1.6,2.8,315.3,0.11,18.4,19.7,"10:52:40",1
"18/06/15","11:10",0.0,19.8,91.4,1002.2,299.1,1.7,2.9,313.7,0.12,18.4,19.8,"11:09:04",1
"18/06/15","11:20",0.0,20.1,90.8,1002.2,303.3,1.7,2.6,334.5,0.16,18.6,19.9,"11:16:00",1
"18/06/15","11:30",0.0,20.0,90.2,1002.4,321.3,2.5,4.5,331.8,0.18,18.4,19.9,"11:27:28",1
"18/06/15","11:40",0.0,20.1,89.7,1002.2,315.0,2.3,4.5,328.2,0.15,18.4,20.0,"11:32:56",1
"18/06/15","11:50",0.0,20.3,89.5,1001.9,311.5,2.0,4.0,314.3,0.14,18.6,20.1,"11:40:32",1
"18/06/15","12:00",0.0,20.5,88.1,1001.9,312.7,2.0,3.7,322.2,0.15,18.5,20.1,"11:52:48",1
"18/06/15","12:10",0.0,20.9,88.1,1001.5,307.3,1.7,4.2,334.4,0.19,18.9,20.1,"12:00:08",1
"18/06/15","12:20",0.0,21.3,88.1,1001.7,309.7,1.5,3.7,335.2,0.21,19.3,20.4,"12:19:28",1
"18/06/15","12:30",0.0,21.4,86.2,1001.5,315.2,2.0,3.9,321.2,0.18,19.0,20.3,"12:24:16",1
"18/06/15","12:40",0.0,21.2,86.5,1001.7,309.6,1.5,3.3,332.0,0.15,18.9,20.4,"12:32:56",1
"18/06/15","12:50",0.0,21.1,86.3,1001.7,322.5,1.8,3.9,315.6,0.13,18.8,20.7,"12:48:48",1
"18/06/15","13:00",0.0,21.1,86.7,1001.7,308.9,1.5,3.6,319.1,0.10,18.8,20.6,"12:52:24",1
"18/06/15","13:10",0.0,21.4,87.4,1001.5,301.4,1.1,2.0,346.4,0.14,19.3,20.6,"13:00:16",1
"18/06/15","13:20",0.0,21.8,85.4,1001.2,296.6,1.1,2.6,320.0,0.16,19.3,20.5,"13:14:48",1
"18/06/15","13:30",0.0,21.9,85.5,1001.5,325.2,1.7,4.0,335.7,0.16,19.4,20.7,"13:25:36",1
"18/06/15","13:40",0.0,22.0,84.6,1001.5,326.5,2.3,4.7,338.9,0.15,19.3,20.5,"13:32:00",1
"18/06/15","13:50",0.0,22.4,84.5,1001.2,311.2,1.6,4.2,327.2,0.16,19.7,20.7,"13:43:04",1
"18/06/15","14:00",0.0,22.6,83.6,1001.0,304.5,1.5,3.1,317.5,0.20,19.7,20.9,"13:54:08",1
"18/06/15","14:10",0.0,22.2,84.2,1001.2,302.7,1.7,4.2,334.7,0.19,19.4,20.7,"14:00:56",1
"18/06/15","14:20",0.0,21.8,84.8,1001.2,284.1,1.3,2.6,310.0,0.16,19.2,20.9,"14:14:40",1
"18/06/15","14:30",0.0,21.2,86.7,1001.0,293.1,1.3,3.4,268.4,0.11,18.9,21.1,"14:24:48",1
"18/06/15","14:40",0.0,21.1,88.5,1001.2,312.8,1.2,2.8,330.0,0.10,19.2,21.0,"14:33:44",1
"18/06/15","14:50",0.0,21.3,88.7,1001.2,324.2,1.7,4.2,346.8,0.06,19.4,21.1,"14:44:32",1
"18/06/15","15:00",0.0,21.4,87.7,1000.8,301.7,1.1,2.4,308.7,0.09,19.3,21.1,"14:52:48",1
"18/06/15","15:10",0.0,21.0,88.6,1001.0,312.3,1.8,3.6,346.7,0.10,19.1,20.9,"15:03:36",1
"18/06/15","15:20",0.0,21.2,89.4,1001.2,323.9,2.1,4.3,340.3,0.11,19.4,21.2,"15:10:24",1
"18/06/15","15:30",0.0,21.3,86.9,1001.0,330.8,2.5,4.5,343.0,0.12,19.1,20.8,"15:27:04",1
"18/06/15","15:40",0.0,21.5,84.3,1001.0,327.7,2.6,4.3,332.8,0.13,18.8,21.1,"15:32:56",1
"18/06/15","15:50",0.0,21.7,82.7,1001.5,327.6,2.7,6.0,323.2,0.14,18.7,20.9,"15:48:16",1
"18/06/15","16:00",0.0,21.6,81.7,1001.0,323.6,2.7,7.4,330.1,0.13,18.4,21.0,"15:59:44",1
"18/06/15","16:10",0.0,21.7,80.1,1001.2,321.4,2.7,4.8,320.7,0.10,18.2,21.0,"16:01:04",1
"18/06/15","16:20",0.0,21.9,79.2,1001.5,320.1,2.1,4.4,331.4,0.08,18.2,21.2,"16:16:32",1
"18/06/15","16:30",0.0,21.9,79.3,1001.2,317.1,1.0,2.7,326.0,0.08,18.2,21.1,"16:28:56",1
"18/06/15","16:40",0.0,21.4,80.0,1001.0,331.1,1.8,3.9,323.7,0.10,17.8,21.2,"16:32:16",1
"18/06/15","16:50",0.0,20.5,84.1,1001.0,349.6,1.8,3.6,330.8,0.10,17.8,21.0,"16:41:52",1
"18/06/15","17:00",0.0,20.0,84.0,1001.5,329.1,2.1,3.9,341.7,0.07,17.3,21.2,"16:53:04",1
"18/06/15","17:10",0.0,19.9,83.7,1001.5,343.3,2.8,6.6,347.9,0.07,17.1,21.0,"17:02:40",1
"18/06/15","17:20",0.0,19.8,83.2,1001.2,344.2,2.3,5.0,315.5,0.05,16.9,21.1,"17:13:36",1
"18/06/15","17:30",0.0,19.8,82.9,1001.5,337.8,2.7,6.2,344.7,0.05,16.9,21.1,"17:21:44",1
"18/06/15","17:40",0.0,19.7,82.1,1001.7,347.7,2.3,6.3,341.9,0.05,16.6,20.8,"17:35:04",1
"18/06/15","17:50",0.0,19.6,82.0,1001.5,354.4,2.2,4.4,323.5,0.04,16.5,21.0,"17:42:32",1
"18/06/15","18:00",0.0,19.4,81.9,1002.4,359.9,2.7,6.7,341.9,0.03,16.3,21.0,"17:58:00",1
"18/06/15","18:10",0.0,19.2,82.2,1002.2,342.3,2.2,5.1,337.9,0.02,16.1,20.8,"18:09:04",1
"18/06/15","18:20",0.0,18.9,82.6,1002.4,349.8,2.6,5.7,12.4,0.00,15.9,20.6,"18:12:56",1
"18/06/15","18:30",0.0,18.9,82.7,1002.4,342.7,2.3,3.9,343.7,0.00,15.9,20.6,"18:28:00",1
"18/06/15","18:40",0.0,18.8,82.9,1002.6,355.5,2.0,5.1,341.4,0.00,15.9,20.7,"18:32:08",1
"18/06/15","18:50",0.0,18.7,82.9,1002.6,354.2,2.5,5.4,344.3,0.00,15.8,20.7,"18:47:44",1
"18/06/15","19:00",0.0,18.6,83.0,1003.1,345.4,2.2,5.0,331.4,0.00,15.7,20.6,"18:51:20",1
"18/06/15","19:10",0.0,18.6,83.4,1003.4,340.9,1.2,2.9,319.2,0.00,15.8,20.5,"19:04:00",1
"18/06/15","19:20",0.0,18.4,83.4,1002.9,337.1,1.7,4.3,340.9,0.00,15.6,20.4,"19:13:04",1
"18/06/15","19:30",0.0,18.3,83.2,1003.4,335.9,1.7,3.1,338.8,0.00,15.4,20.4,"19:25:12",1
"18/06/15","19:40",0.0,18.3,82.8,1003.4,354.9,1.7,3.2,309.7,0.00,15.4,20.2,"19:39:20",1
"18/06/15","19:50",0.0,18.2,82.3,1003.6,341.0,2.2,5.2,308.5,0.00,15.2,20.1,"19:45:28",1
"18/06/15","20:00",0.0,18.0,82.1,1003.8,344.4,1.8,3.7,18.4,0.00,14.9,20.2,"19:59:44",1
"18/06/15","20:10",0.0,18.1,81.7,1004.1,345.9,2.1,4.5,18.8,0.00,15.0,20.1,"20:08:40",1
"18/06/15","20:20",0.0,18.0,81.5,1004.1,344.1,1.7,3.5,339.6,0.00,14.8,20.0,"20:16:32",1
"18/06/15","20:30",0.0,18.0,81.1,1004.1,342.9,1.5,3.2,334.6,0.00,14.8,20.1,"20:23:20",1
"18/06/15","20:40",0.0,18.0,80.7,1004.3,325.1,1.1,2.2,348.3,0.00,14.7,20.1,"20:35:36",1
"18/06/15","20:50",0.0,18.0,80.3,1004.3,323.8,1.8,3.9,343.2,0.00,14.6,20.0,"20:44:56",1
"18/06/15","21:00",0.0,18.0,80.3,1004.5,335.6,2.0,3.6,332.4,0.00,14.6,20.0,"20:59:04",1
"18/06/15","21:10",0.0,17.9,80.2,1004.5,324.5,2.2,4.4,307.5,0.00,14.5,20.0,"21:04:48",1
"18/06/15","21:20",0.0,17.9,79.8,1004.8,319.7,2.6,5.4,324.9,0.00,14.4,19.9,"21:10:02",1
"18/06/15","21:30",0.0,17.8,79.6,1004.5,324.0,2.7,5.7,331.6,0.00,14.3,20.0,"21:29:52",1
"18/06/15","21:40",0.0,17.8,79.2,1005.0,316.7,1.8,3.9,329.0,0.00,14.2,19.8,"21:31:04",1
"18/06/15","21:50",0.0,17.6,79.4,1004.8,326.0,2.0,4.2,321.4,0.00,14.0,19.8,"21:48:24",1
"18/06/15","22:00",0.0,17.6,79.3,1004.8,326.5,2.3,4.0,332.2,0.00,14.0,19.7,"21:55:36",1
"18/06/15","22:10",0.0,17.5,79.6,1005.0,331.9,2.5,6.5,342.3,0.00,14.0,19.6,"22:07:28",1
"18/06/15","22:20",0.0,17.5,79.8,1005.0,330.0,3.0,4.9,335.9,0.00,14.0,19.6,"22:12:00",1
"18/06/15","22:30",0.0,17.4,79.7,1005.0,328.8,3.1,5.7,332.1,0.00,13.9,19.7,"22:29:12",1
"18/06/15","22:40",0.0,17.3,79.8,1004.8,330.3,2.5,4.4,330.9,0.00,13.8,19.6,"22:33:28",1
"18/06/15","22:50",0.0,17.2,80.5,1005.2,327.7,2.3,5.6,340.4,0.00,13.9,19.4,"22:48:16",1
"18/06/15","23:00",0.0,17.3,80.1,1004.5,321.7,2.5,4.7,315.4,0.00,13.9,19.5,"22:52:00",1
"18/06/15","23:10",0.0,17.2,80.1,1004.8,321.5,2.2,3.9,315.2,0.00,13.8,19.4,"23:08:24",1
"18/06/15","23:20",0.0,17.2,80.5,1005.2,326.2,2.5,3.9,344.0,0.00,13.9,19.4,"23:13:52",1
"18/06/15","23:30",0.0,17.2,80.3,1005.0,325.7,2.2,3.6,323.9,0.00,13.8,19.2,"23:25:36",1
"18/06/15","23:40",0.0,17.1,80.6,1005.2,328.2,2.2,3.9,327.5,0.00,13.8,19.2,"23:38:56",1
"18/06/15","23:50",0.0,17.1,80.1,1005.0,329.8,2.1,4.7,328.1,0.00,13.7,19.4,"23:41:20",1
"18/06/15","24:00",0.0,16.8,80.6,1005.2,314.5,1.5,2.6,320.3,0.00,13.5,19.2,"23:51:28",1
